[[{"header":{"parameterUnit":"m.s-1","parameterCategory":1,"la1":30.2991,"la2":30.254,"lo1":-89.0895,"lo2":-89.0444,"dy":0.0017,"dx":0.0017,"nx":28,"ny":28,"refTime":"2023-09-18T21:00:00:Z","depth":0,"parameterNumber":2,"parameterNumberName":"U-component_of_WINDS"},"data":[0,0,0,0,0,0,0,0,0,0,0,0,0,0,0,0,0,0,0,0,0,0,0,0,0,0,0,0,0,0,0,0,0,0,0,0,0,0,0,0,0,0,0,0,0,0,0,0,0,0,0,0,0,0,0,0,0,0,-0.6856,-0.6855,0,-0.6794,-0.6793,-0.6793,-0.6723,-0.6722,-0.6721,-0.672,-0.6657,-0.6656,-0.6655,0,0,0,0,0,0,0,0,0,0,0,0,0,-0.6914,-0.6914,-0.6856,-0.6855,-0.6855,-0.6794,-0.6793,-0.6792,-0.6724,-0.6722,-0.6721,-0.672,-0.6657,-0.6656,-0.6655,0,0,0,0,0,0,0,0,0,0,0,0,0,-0.6874,-0.6913,-0.6856,-0.6813,-0.6808,-0.6794,-0.6793,-0.6792,-0.6724,-0.6722,-0.6721,-0.6719,-0.6657,-0.6656,-0.6655,-0.6679,0,0,-0.6652,-0.6651,0,0,0,0,0,0,0,0,-0.6877,-0.6872,-0.682,-0.6816,-0.6811,-0.6765,-0.679,-0.6754,-0.6724,-0.6756,-0.672,-0.6719,-0.6694,-0.669,-0.6681,-0.6676,-0.6673,-0.6652,-0.6651,-0.6651,-0.665,0,0,0,0,0,0,0,-0.688,-0.6875,-0.6832,-0.6819,-0.6814,-0.6796,-0.6789,-0.6783,-0.6734,-0.6753,-0.6748,-0.6741,-0.6691,-0.6683,-0.6679,-0.6672,-0.6652,-0.6651,-0.665,-0.665,-0.6683,-0.6684,0,0,0,0,0,0,-0.6889,-0.6877,-0.6834,-0.683,-0.6841,-0.6797,-0.6788,-0.6781,-0.6734,-0.6726,-0.6743,-0.6738,-0.6685,-0.6681,-0.6677,-0.6702,-0.6651,-0.6649,-0.6649,-0.6681,-0.6683,-0.6685,0,0,0,0,0,0,-0.6891,-0.6886,-0.6836,-0.6852,-0.6844,-0.6797,-0.679,-0.6781,-0.6772,-0.6726,-0.6717,-0.6743,-0.6684,-0.6679,-0.6679,-0.6699,-0.6649,-0.6648,-0.668,-0.6682,-0.6684,-0.6753,0,0,0,0,0,0,-0.6893,-0.6887,-0.6895,-0.6853,-0.6844,-0.6839,-0.6791,-0.6781,-0.6771,-0.6764,-0.6724,-0.6716,-0.6682,-0.6681,-0.6678,-0.6696,-0.6647,-0.6678,-0.6681,-0.6683,-0.6748,-0.6757,-0.6764,0,0,0,0,0,-0.6895,-0.6917,-0.6896,-0.6891,-0.6854,-0.6841,-0.6836,-0.6796,-0.6772,-0.6781,-0.6751,-0.6718,-0.6697,-0.6682,-0.6677,-0.6696,-0.6676,-0.668,-0.6683,-0.6745,-0.6755,-0.6764,0,0,0,0,0,0,-0.6963,-0.6911,-0.6887,-0.6896,-0.6874,-0.6829,-0.6838,-0.6808,-0.6792,-0.6787,-0.6738,-0.673,-0.6736,-0.6716,-0.67,-0.6717,-0.6682,-0.6685,-0.673,-0.674,-0.6747,-0.6753,-0.6646,0,0,0,0,0,-0.6979,-0.6973,-0.6928,-0.694,-0.693,-0.6886,-0.6879,-0.685,-0.6825,-0.6815,-0.6785,-0.6762,-0.675,-0.6743,-0.673,-0.6744,-0.6735,-0.6755,-0.6763,-0.677,-0.6773,-0.678,-0.6789,-0.6696,-0.6696,-0.6696,0,0,-0.7013,-0.6983,-0.6983,-0.6953,-0.6932,-0.6927,-0.6879,-0.6875,-0.6871,-0.6814,-0.6813,-0.6791,-0.6761,-0.6769,-0.6771,-0.6752,-0.6797,-0.6774,-0.678,-0.678,-0.6785,-0.6793,-0.6801,-0.6699,-0.6698,-0.6698,0,0,-0.7071,-0.7048,-0.7056,-0.7036,-0.7005,-0.6976,-0.6978,-0.6938,-0.6921,-0.6919,-0.6876,-0.687,-0.6851,-0.6831,-0.6819,-0.687,-0.6839,-0.6867,-0.6909,-0.6916,-0.6924,-0.693,-0.6949,-0.6956,-0.687,-0.687,-0.687,0,-0.7117,-0.7108,-0.7064,-0.7064,-0.7052,-0.7,-0.7008,-0.6991,-0.6957,-0.695,-0.6929,-0.6904,-0.688,-0.6883,-0.6896,-0.6887,-0.6888,-0.6872,-0.6926,-0.6932,-0.6937,-0.6955,-0.6962,-0.6874,-0.6873,-0.6873,-0.6873,0,-0.7166,-0.716,-0.717,-0.7139,-0.7128,-0.7132,-0.7089,-0.7083,-0.7055,-0.7028,-0.7027,-0.6997,-0.6976,-0.6974,-0.6947,-0.6974,-0.6963,-0.6935,-0.6899,-0.695,-0.6966,-0.6973,-0.6879,-0.6878,-0.6877,-0.6876,0,0,-0.7267,-0.7211,-0.7216,-0.7201,-0.7163,-0.7157,-0.7158,-0.7138,-0.7135,-0.7113,-0.7113,-0.7097,-0.7071,-0.7057,-0.7027,-0.7033,-0.7076,-0.7004,-0.7002,-0.702,-0.7105,-0.7127,-0.7136,-0.7055,-0.7056,-0.7057,-0.7108,0,-0.732,-0.7319,-0.728,-0.729,-0.7284,-0.7235,-0.7235,-0.7212,-0.7186,-0.7178,-0.7149,-0.7139,-0.7105,-0.7096,-0.71,-0.707,-0.7093,-0.7066,-0.7055,-0.7055,-0.7066,-0.7144,-0.7168,-0.7217,-0.7113,-0.7114,-0.7115,0,-0.7381,-0.7363,-0.7373,-0.7334,-0.733,-0.7332,-0.7311,-0.7303,-0.7275,-0.7256,-0.7241,-0.7206,-0.7204,-0.717,-0.7167,-0.715,-0.7142,-0.7127,-0.7128,-0.7127,-0.709,-0.7146,-0.7232,-0.724,-0.7124,-0.7123,-0.7123,0,-0.7456,-0.7434,-0.7437,-0.7426,-0.738,-0.7383,-0.7364,-0.7334,-0.7325,-0.7306,-0.7299,-0.728,-0.7271,-0.7257,-0.7218,-0.7196,-0.722,-0.7182,-0.7205,-0.7206,-0.7214,-0.7214,-0.7301,-0.7207,-0.7207,-0.7207,-0.7207,0,-0.752,-0.7528,-0.747,-0.7472,-0.748,-0.7434,-0.7443,-0.7419,-0.7393,-0.739,-0.7345,-0.7343,-0.7291,-0.7283,-0.7253,-0.7256,-0.7251,-0.7236,-0.7229,-0.7241,-0.7244,-0.7237,-0.7233,-0.7209,-0.7208,-0.7208,-0.7207,0,-0.7605,-0.7566,-0.7566,-0.7523,-0.7512,-0.752,-0.7483,-0.7483,-0.7454,-0.7451,-0.7447,-0.7403,-0.7391,-0.7351,-0.7329,-0.7308,-0.7321,-0.7305,-0.7331,-0.7326,-0.7352,-0.7351,-0.7439,-0.7449,-0.7348,-0.7349,-0.7349,0,-0.7649,-0.7654,-0.7612,-0.7606,-0.7589,-0.7581,-0.7571,-0.7526,-0.7518,-0.7486,-0.749,-0.7475,-0.746,-0.7444,-0.7409,-0.7393,-0.7376,-0.7409,-0.7374,-0.7387,-0.7379,-0.7379,-0.738,-0.7417,-0.7418,-0.7419,-0.742,0,-0.7732,-0.7712,-0.77,-0.7681,-0.7671,-0.7653,-0.7633,-0.7632,-0.7581,-0.7574,-0.7561,-0.755,-0.7528,-0.7513,-0.7491,-0.7471,-0.7438,-0.7431,-0.7436,-0.745,-0.7465,-0.7459,-0.7353,-0.743,-0.7429,-0.7428,-0.7428,-0.7427,-0.7798,-0.7801,-0.7772,-0.7759,-0.774,-0.7722,-0.772,-0.7691,-0.768,-0.7659,-0.7632,-0.7623,-0.7595,-0.7561,-0.7544,-0.7536,-0.7518,-0.7524,-0.7526,-0.7529,-0.7536,-0.7465,-0.7532,-0.7531,-0.7531,-0.7531,-0.753,0,-0.788,-0.7858,-0.7848,-0.7821,-0.7812,-0.778,-0.7757,-0.7751,-0.7744,-0.772,-0.7706,-0.7692,-0.7678,-0.7642,-0.7624,-0.7625,-0.7609,-0.7622,-0.7622,-0.7619,-0.7552,-0.7551,-0.7635,-0.7635,-0.7635,-0.7635,-0.7635,-0.7635,-0.7922,-0.7925,-0.7902,-0.7894,-0.7872,-0.7863,-0.7853,-0.7836,-0.7817,-0.7803,-0.7791,-0.7768,-0.7739,-0.7719,-0.7705,-0.7694,-0.7691,-0.7709,-0.7694,-0.7633,-0.7623,-0.7614,-0.7612,-0.7708,-0.7708,-0.7761,-0.7761,-0.7762]},{"header":{"parameterUnit":"m.s-1","parameterCategory":1,"la1":30.2991,"la2":30.254,"lo1":-89.0895,"lo2":-89.0444,"dy":0.0017,"dx":0.0017,"nx":28,"ny":28,"refTime":"2023-09-18T21:00:00:Z","depth":0,"parameterNumber":3,"parameterNumberName":"V-component_of_WINDS"},"data":[0,0,0,0,0,0,0,0,0,0,0,0,0,0,0,0,0,0,0,0,0,0,0,0,0,0,0,0,0,0,0,0,0,0,0,0,0,0,0,0,0,0,0,0,0,0,0,0,0,0,0,0,0,0,0,0,0,0,-0.6363,-0.6364,0,-0.6434,-0.6435,-0.6436,-0.647,-0.647,-0.647,-0.647,-0.6544,-0.6546,-0.6548,0,0,0,0,0,0,0,0,0,0,0,0,0,-0.6261,-0.6262,-0.6363,-0.6364,-0.6365,-0.6434,-0.6435,-0.6436,-0.647,-0.647,-0.647,-0.647,-0.6544,-0.6546,-0.6549,0,0,0,0,0,0,0,0,0,0,0,0,0,-0.6316,-0.6263,-0.6363,-0.639,-0.6393,-0.6434,-0.6435,-0.6436,-0.647,-0.647,-0.647,-0.647,-0.6543,-0.6546,-0.6549,-0.6568,0,0,-0.6558,-0.6559,0,0,0,0,0,0,0,0,-0.6312,-0.6319,-0.6385,-0.6388,-0.6392,-0.6443,-0.6426,-0.648,-0.647,-0.6441,-0.647,-0.647,-0.6511,-0.6517,-0.653,-0.6572,-0.6575,-0.6558,-0.656,-0.6562,-0.6562,0,0,0,0,0,0,0,-0.6309,-0.6317,-0.6391,-0.6386,-0.639,-0.64,-0.6408,-0.6437,-0.6475,-0.6443,-0.6446,-0.6454,-0.6513,-0.6527,-0.6532,-0.6576,-0.6558,-0.6561,-0.6563,-0.6564,-0.664,-0.664,0,0,0,0,0,0,-0.63,-0.6313,-0.6389,-0.6393,-0.6351,-0.6402,-0.641,-0.6427,-0.6475,-0.6482,-0.6454,-0.6455,-0.6522,-0.6528,-0.6535,-0.6562,-0.6561,-0.6564,-0.6566,-0.664,-0.664,-0.664,0,0,0,0,0,0,-0.6298,-0.6306,-0.6386,-0.6354,-0.6365,-0.6404,-0.6421,-0.6428,-0.6442,-0.6483,-0.649,-0.6461,-0.6522,-0.653,-0.656,-0.6565,-0.6566,-0.6568,-0.664,-0.664,-0.664,-0.6616,0,0,0,0,0,0,-0.6295,-0.6305,-0.6312,-0.6354,-0.6366,-0.6409,-0.6422,-0.6429,-0.6447,-0.645,-0.6492,-0.6499,-0.6523,-0.6555,-0.6563,-0.657,-0.6571,-0.6639,-0.664,-0.664,-0.6617,-0.6616,-0.6615,0,0,0,0,0,-0.6291,-0.6302,-0.6312,-0.6321,-0.6375,-0.6409,-0.6417,-0.6443,-0.6447,-0.6455,-0.6482,-0.6497,-0.6563,-0.6558,-0.6567,-0.6574,-0.6639,-0.664,-0.664,-0.6617,-0.6616,-0.6615,0,0,0,0,0,0,-0.626,-0.6308,-0.632,-0.6345,-0.6373,-0.6415,-0.6425,-0.6441,-0.6468,-0.647,-0.6503,-0.6512,-0.6539,-0.656,-0.6553,-0.6597,-0.6603,-0.6605,-0.6583,-0.6582,-0.6581,-0.6576,-0.6573,0,0,0,0,0,-0.6256,-0.6279,-0.632,-0.6338,-0.6352,-0.6386,-0.6402,-0.642,-0.6451,-0.6463,-0.6491,-0.6521,-0.6549,-0.6566,-0.6594,-0.662,-0.6631,-0.663,-0.6629,-0.6628,-0.663,-0.6647,-0.6648,-0.6642,-0.6642,-0.6642,0,0,-0.6249,-0.6278,-0.629,-0.6333,-0.6357,-0.6381,-0.6396,-0.642,-0.6439,-0.6467,-0.6497,-0.6519,-0.6554,-0.6583,-0.6597,-0.6601,-0.6634,-0.6628,-0.6627,-0.663,-0.6648,-0.6649,-0.6649,-0.6642,-0.6642,-0.6642,0,0,-0.6248,-0.6271,-0.629,-0.6314,-0.6349,-0.6373,-0.6377,-0.6418,-0.6433,-0.6464,-0.6486,-0.6509,-0.6556,-0.6581,-0.66,-0.661,-0.6626,-0.6618,-0.6613,-0.663,-0.6631,-0.6631,-0.6637,-0.6638,-0.662,-0.662,-0.662,0,-0.6234,-0.627,-0.6298,-0.6321,-0.6341,-0.6367,-0.6388,-0.641,-0.6453,-0.6466,-0.647,-0.653,-0.6556,-0.6592,-0.6594,-0.6608,-0.6616,-0.6614,-0.6628,-0.6629,-0.663,-0.6636,-0.6638,-0.6619,-0.6619,-0.6619,-0.6619,0,-0.6252,-0.6277,-0.6288,-0.6329,-0.635,-0.6372,-0.6404,-0.6422,-0.6439,-0.6463,-0.6495,-0.6526,-0.6562,-0.6572,-0.6588,-0.6611,-0.6613,-0.6622,-0.6628,-0.6629,-0.6635,-0.6638,-0.6617,-0.6617,-0.6618,-0.6618,0,0,-0.6233,-0.629,-0.6294,-0.6314,-0.6357,-0.6377,-0.6401,-0.6436,-0.6451,-0.648,-0.6503,-0.6542,-0.6552,-0.6573,-0.6593,-0.6608,-0.6617,-0.6616,-0.6617,-0.6616,-0.6646,-0.6639,-0.6641,-0.6627,-0.6628,-0.6628,-0.6643,0,-0.6239,-0.6282,-0.6309,-0.6342,-0.6367,-0.6394,-0.6415,-0.6444,-0.6467,-0.6492,-0.6518,-0.6546,-0.6555,-0.6569,-0.6584,-0.6612,-0.6623,-0.6611,-0.665,-0.6651,-0.6641,-0.6644,-0.6637,-0.6649,-0.6646,-0.6646,-0.6646,0,-0.6251,-0.628,-0.6315,-0.6357,-0.6369,-0.6387,-0.6422,-0.6445,-0.648,-0.6496,-0.652,-0.6541,-0.6569,-0.6573,-0.6614,-0.6605,-0.6623,-0.6639,-0.664,-0.6646,-0.6649,-0.6651,-0.6654,-0.6656,-0.665,-0.665,-0.6649,0,-0.6235,-0.6283,-0.6312,-0.6328,-0.6376,-0.6389,-0.641,-0.6445,-0.6465,-0.6496,-0.6509,-0.6543,-0.6562,-0.6588,-0.6618,-0.6618,-0.6657,-0.6662,-0.6672,-0.6671,-0.6679,-0.6679,-0.6686,-0.6688,-0.6688,-0.6688,-0.6688,0,-0.6239,-0.6261,-0.6306,-0.6323,-0.6348,-0.638,-0.6404,-0.6428,-0.6459,-0.6482,-0.6507,-0.6529,-0.6567,-0.6594,-0.6617,-0.6649,-0.6657,-0.6671,-0.6678,-0.667,-0.6668,-0.6682,-0.6683,-0.6689,-0.6689,-0.6689,-0.6689,0,-0.6226,-0.6257,-0.629,-0.6334,-0.6346,-0.6363,-0.6401,-0.642,-0.6444,-0.6474,-0.6483,-0.6522,-0.6555,-0.6588,-0.6632,-0.6648,-0.668,-0.6687,-0.6668,-0.6672,-0.668,-0.6679,-0.6698,-0.6703,-0.67,-0.67,-0.67,0,-0.6228,-0.6245,-0.6291,-0.6309,-0.6329,-0.6357,-0.6378,-0.641,-0.6431,-0.6472,-0.6487,-0.6522,-0.6552,-0.6604,-0.6637,-0.6672,-0.6681,-0.6686,-0.6687,-0.6679,-0.6683,-0.6682,-0.6685,-0.6685,-0.6685,-0.6685,-0.6685,0,-0.6227,-0.6242,-0.627,-0.6305,-0.6329,-0.6357,-0.6387,-0.64,-0.6438,-0.6461,-0.6495,-0.6518,-0.6564,-0.66,-0.6639,-0.6662,-0.6681,-0.6684,-0.6688,-0.6681,-0.667,-0.6678,-0.6667,-0.6683,-0.6684,-0.6684,-0.6684,-0.6684,-0.6222,-0.624,-0.6275,-0.6307,-0.6333,-0.636,-0.6381,-0.6408,-0.6437,-0.6477,-0.6495,-0.653,-0.6567,-0.6621,-0.6644,-0.6673,-0.6677,-0.6683,-0.6685,-0.6686,-0.6685,-0.6664,-0.668,-0.668,-0.668,-0.668,-0.668,0,-0.6224,-0.6249,-0.6278,-0.6319,-0.6344,-0.6359,-0.6393,-0.6414,-0.6444,-0.6476,-0.6505,-0.6546,-0.6581,-0.6617,-0.6654,-0.6671,-0.668,-0.668,-0.6679,-0.6685,-0.6678,-0.6672,-0.6672,-0.6672,-0.6672,-0.6672,-0.6672,-0.6672,-0.6229,-0.6259,-0.6279,-0.6323,-0.6348,-0.6383,-0.6401,-0.6428,-0.6454,-0.6498,-0.6527,-0.655,-0.6585,-0.6625,-0.6658,-0.6668,-0.6682,-0.6679,-0.6691,-0.6685,-0.6685,-0.6686,-0.668,-0.6681,-0.6681,-0.6696,-0.6696,-0.6696]}]]